Home > Weather > Kiritimati > Past weeks

Flag for Kiribati Past Weather in Kiritimati, Christmas Island, Kiribati — Yesterday and Last 2 Weeks

Now
81 °F

Scattered clouds.


Feels Like: 86 °F
Forecast: 79 / 84 °F
Wind: 5 mph from Southeast

Location: Christmas / Cassidy

Current Time: May 27, 2016 at 6:39:47 AM

Latest Report: May 27, 2016 at 6:00 AM


Visibility: N/A

Pressure: 29.86 "Hg

Humidity: 84%

Dew Point: 75 °F

Location of KiritimatiLocation

Past Weather in Kiritimati — Graph

°F

Kiritimati Temperature Yesterday

Maximum temperature yesterday: 86 °F (at 1:00 PM)
Minimum temperature yesterday: 79 °F (at 6:00 AM)
Average temperature yesterday: 82 °F

High & Low Weather Summary for the Past Weeks

 TemperatureHumidityPressure
High88 °F (May 12, 11:00 AM)100% (May 18, 1:00 AM)29.95 "Hg (May 18, 1:00 AM)
Low77 °F (May 18, 1:00 AM)59% (May 24, 12:00 PM)29.68 "Hg (May 18, 3:00 PM)
Average83 °F79%29.80 "Hg
* Reported May 12 2:00 AM — May 27 2:00 AM, Kiritimati, Weather by CustomWeather, © 2016

Note: Actual official high and low records may vary slightly from our data, if they occured in-between our weather recording intervals... More about our weather records

Advertising

Kiritimati Weather History for the Previous 24 Hours

Scroll right to see more
 ConditionsComfort  
Time TempWeatherWind HumidityBarometerVisibility
2:00 AM
Fri, May 27
81 °FScattered showers. Partly cloudy.5 mph84%29.86 "HgN/A
1:00 AM81 °FPassing clouds.9 mph79%29.89 "HgN/A
12:00 AM81 °FPassing clouds.9 mph79%29.89 "HgN/A
11:00 PM
Thu, May 26
81 °FPassing clouds.9 mph84%29.89 "HgN/A
10:00 PM81 °FPassing clouds.7 mph84%29.89 "HgN/A
9:00 PM81 °FPassing clouds.7 mph84%29.86 "HgN/A
8:00 PM81 °FPassing clouds.9 mph84%29.86 "HgN/A
7:00 PM82 °FPassing clouds.7 mph79%29.86 "HgN/A
6:00 PM82 °FPassing clouds.12 mph79%29.83 "HgN/A
5:00 PM84 °FPassing clouds.9 mph74%29.83 "HgN/A
4:00 PM84 °FPartly sunny.14 mph74%29.83 "HgN/A
3:00 PM86 °FPartly sunny.16 mph70%29.83 "HgN/A
2:00 PM86 °FPartly sunny.12 mph70%29.83 "HgN/A
1:00 PM86 °FScattered clouds.10 mph70%29.86 "HgN/A
12:00 PM84 °FScattered clouds.12 mph74%29.89 "HgN/A
11:00 AM84 °FBroken clouds.6 mph74%29.92 "HgN/A
10:00 AM84 °FScattered clouds.7 mph74%29.95 "HgN/A
9:00 AM84 °FScattered clouds.6 mph70%29.92 "HgN/A
8:00 AM84 °FScattered clouds.2 mph70%29.92 "HgN/A
7:00 AM81 °FPartly sunny.6 mph79%29.86 "HgN/A
6:00 AM79 °FPartly sunny.5 mph84%29.86 "HgN/A
Weather by CustomWeather, © 2016

See weather overviewHow to use our weather pages